Regional Weather Roundup
Issued by NWS Wakefield, VA

Home | Current Version | Previous Version | Text Only | Print | Product List | Glossary Off
Versions: 1 2 3 4 5 6 7 8 9 10 11 12 13 14 15 16 17 18 19 20 21 22 23 24 25 26 27 28 29 30 31 32 33 34 35 36 37 38 39 40 41 42 43 44 45 46 47 48 49 50
000 ASUS41 KAKQ 221910 RWRAKQ REGIONAL WEATHER ROUNDUP NATIONAL WEATHER SERVICE WAKEFIELD VA 300 PM EDT FRI AUG 22 2014 Note: "fair" indicates few or no clouds below 12,000 feet with no significant weather and/or obstructions to visibility. * = Denotes station may not report precipitation (e.g., rain,snow,etc.), thunder or fog. VAZ042-051-052>054-056-222000- NORTHERN VIRGINIA CITY SKY/WX TMP DP RH WIND PRES REMARKS WASH NATIONAL CLOUDY 81 70 69 VRB3 29.98F DULLES CLOUDY 76 71 85 CALM 29.99F FORT BELVOIR MOSUNNY 79 72 78 W7 29.98F QUANTICO CLOUDY 76 71 85 NW9 29.99F FREDERICKSBRG* LGT RAIN 75 73 91 W3 29.98F STAFFORD* LGT RAIN 74 74 100 CALM 30.03F WARRENTON CLOUDY 78 76 92 W3 30.00F CULPEPER* PTSUNNY N/A N/A N/A CALM 30.00F MANASSAS* NOT AVBL LEESBURG* CLOUDY 79 72 78 CALM 30.00F WINCHESTER PTSUNNY 79 70 73 CALM 30.00F $$ VAZ048-049-060>072-079>083-222000- CENTRAL AND SOUTH CENTRAL VIRGINIA...AND NORTH CENTRAL NORTH CAROLINA CITY SKY/WX TMP DP RH WIND PRES REMARKS RICHMOND CLOUDY 82 68 62 NW6 29.97F CHESTERFIELD* CLOUDY N/A N/A N/A N5 29.99F HANOVER CLOUDY 79 71 76 CALM 30.00F TAPPAHANNOCK* PTSUNNY 80 68 67 W6 29.98F CHARLOTTSVILLE PTSUNNY 79 70 74 NE3 29.99F ORANGE* CLOUDY 77 68 73 N5 30.01F LOUISA* PTSUNNY 81 70 69 E5 29.99F FARMVILLE* CLOUDY 84 68 58 W6 29.96F SOUTH HILL* PTSUNNY 84 72 65 NW7 30.03F ROANOKE RAPIDS MOCLDY 82 72 69 SW6 29.97F RALEIGH PTSUNNY 90 70 51 W7 30.00F HX 95 $$ VAZ088>098-222000- SOUTHEAST VIRGINIA CITY SKY/WX TMP DP RH WIND PRES REMARKS NORFOLK CLOUDY 82 69 64 VRB5 29.95S VIRGINIA BEACH CLOUDY 82 71 69 N10 29.94S NORFOLK NAVAL CLOUDY 83 69 62 W9 29.96F WEST POINT* CLOUDY 82 70 66 NW6 29.97F NEWPORT NEWS CLOUDY 85 71 63 NW8 29.96F LANGLEY AFB CLOUDY 81 72 73 NW8 29.94F FORT EUSTIS CLOUDY 80 66 61 NW7 29.94F WILLIAMSBURG* CLOUDY 82 72 69 NW6 29.97F FRANKLIN* CLOUDY 82 72 69 NW5 29.97F WAKEFIELD CLOUDY 81 70 69 CALM 29.97F $$ VAZ020-022-025-037-045-222000- WESTERN AND SOUTHWEST VIRGINIA CITY SKY/WX TMP DP RH WIND PRES REMARKS STAUNTON* PTSUNNY 83 68 59 NE7 30.02F HOT SPRINGS VA CLOUDY 67 67 100 W7 30.17F LYNCHBURG CLOUDY 81 72 74 CALM 30.02F DANVILLE CLOUDY 83 72 69 W3 30.01F MARTINSVILLE CLOUDY 84 75 74 CALM 30.04F ROANOKE CLOUDY 78 69 73 CALM 30.05F BLACKSBURG PTSUNNY 82 73 74 NE6 30.10S DUBLIN* MOSUNNY 86 68 55 W10 30.09S MARION* CLOUDY 80 71 74 SW8G18 30.14F HILLSVILLE* PTSUNNY 80 66 64 NW13 30.12F RICHLANDS* MOCLDY 84 69 59 NW7 30.12F WISE* PTSUNNY 82 64 54 W7 30.14F ABINGDON* MOSUNNY 84 73 67 W7 30.10F $$ MDZ021>025-VAZ099-100-222000- SOUTHERN MARYLAND AND THE DELMARVA PENINSULA CITY SKY/WX TMP DP RH WIND PRES REMARKS PATUXENT RIVER CLOUDY 82 73 74 NW8 29.96F BAY BRIDGE APT N/A 77 70 78 N7 29.97F LEONARDTOWN CLOUDY 77 70 78 CALM 29.98F DOVER CLOUDY 79 71 77 E8 29.97S GEORGETOWN CLOUDY 80 69 69 E17G24 29.97F EASTON PTSUNNY 82 73 74 N9 30.00S CAMBRIDGE PTSUNNY 77 72 83 CALM 29.95F SALISBURY CLOUDY 77 72 84 E6 29.95F OCEAN CITY PTSUNNY 78 71 79 E13 29.95F WALLOPS ISLAND LGT RAIN 76 73 91 E12 29.94F FOG ACCOMACK* CLOUDY 79 72 78 NW8 29.94F $$ NCZ012>017-030>032-222000- EASTERN NORTH CAROLINA CITY SKY/WX TMP DP RH WIND PRES REMARKS ELIZABETH CITY LGT RAIN 85 70 60 NW6 29.94F AHOSKIE* PTSUNNY 83 72 69 CALM 29.96F EDENTON* PTSUNNY 85 72 63 NW5 29.96S CURRITUCK* PTSUNNY 90 65 43 W7 29.95S KILL DEVIL HLS PTSUNNY 84 72 66 W7 29.92F MANTEO PTSUNNY 84 70 61 NW7 29.94F CAPE HATTERAS MOSUNNY 85 75 72 W7G16 29.94F GOLDSBORO PTSUNNY 91 77 64 NW8 29.95F HX 104 WASHINGTON MOSUNNY 88 72 58 W6 29.96F HX 95 GREENVILLE PTSUNNY 90 73 58 N5 29.98F HX 98 NEW BERN MOSUNNY 94 73 50 NW9G17 29.97F HX 103 WILMINGTON MOSUNNY 95 72 47 W13 29.97F HX 103 $$ VAZ048-222000- ELSEWHERE CITY SKY/WX TMP DP RH WIND PRES REMARKS HARRISBURG PA LGT RAIN 78 69 73 S5 29.98F BALTIMORE CLOUDY 77 69 76 E6 29.98S ANNAPOLIS N/A 77 69 76 MISG 29.98S ANDREWS AFB CLOUDY 78 71 78 NW1 29.98F WILMINGTON DE PTSUNNY 79 66 64 NE7 29.99F PHILADELPHIA CLOUDY 78 67 68 E8 30.00S WILDWOOD NJ* CLOUDY 75 64 69 E10 29.99F ATLANTIC CITY CLOUDY 76 66 71 E14 29.99F HENDERSON NC PTSUNNY 83 68 60 NW6 30.01S GREENSBORO CLOUDY 89 71 55 NW7 30.02F HX 95 ROCKY MOUNT PTSUNNY 89 70 53 NW9 29.98F FAYETTEVILLE MOSUNNY 95 66 38 VRB5 29.97F HX 98 CHARLOTTE PTSUNNY 92 68 45 VRB6 30.02F HX 96 $$ VAZ100-222000- MARINE STATION/POSITION TIME TEMP WIND PRES WAVE SWELL AIR SEA DIR/SP/G HT/PER HT/PER (UTC) (F) (DEG/KT/KT) (MB) (FT/S) (FT/S) 44066 TX TWR #4 1900 71 73 50/ 14/ 16 1015.3F 3/ 6 2/ 7 CAPE MAY NJ 1900 74 80 80/ 5/ 7 1014.9F LEWES DE 1900 74 76 90/ 14/ 17 1014.9S 15NM E FENWICK I 1900 75 76 1014.2F 3/ 7 OCEAN-CITY-INLET 1900 76 79 80/ 7/ 10 1014.2F WACHAPREAGUE VA 1900 81 82 280/ 2/ 5 1014.1S THOMAS POINT MD 1900 75 78 10/ 11/ 12 1015.4F GOOSES REEF MD 1900 77 10/ 10/ 10 1015.2F COVE POINT MD 1900 76 350/ 10/ 11 1014.5F SOLOMONS ISLAND 1900 80 N/A BISHOPS HEAD MD 1900 79 81 280/ 5/ 7 1013.8F PINEY POINT MD 1900 10/ 9/ 9 N/A POTOMAC MD 1900 79 330/ 6/ 6 1013.9F CAMBRIDGE MD 1900 77 79 CALM / 3 1014.1F LEWISETTA VA 1900 80 80 320/ 3/ 4 1014.1F RAPPAHANNOCK LGT 1900 330/ 7/ 8 1014.6F STINGRAY PT 1900 79 20/ 6/ 6 1015.1F YORK RVR RNG VA 1900 80 330/ 11/ 15 1013.9F YORKTOWN VA 1900 80 81 310/ 11/ 12 1014.1F JAMESTOWN VA 1900 78 330/ 8/ 10 N/A DOMINION TERM VA 1900 81 320/ 9/ 13 1014.3F KIPTOPEKE VA 1900 83 360/ 7/ 8 N/A CHES BAY BRIDGE 1900 78 80 360/ 11/ 12 1013.7F CAPE HENRY VA 1900 78 350/ 8/ 12 1013.0F CHESAPEAKE LGHT 1800 79 340/ 13/ 13 1014.9F WILLOUBY STN VA 1900 80 330/ 10/ 11 1013.1F S CRANEY ISL VA 1900 310/ 7/ 11 1014.0F CAPE HENRY BUOY 1900 78 N/A 2/ 7 1ST LANDING BUOY 1900 79 10/ 12/ 14 1013.8F CAPE CHARLES BUO 1900 79 N/A 2/ 7 2/ 7 OFFSHORE WE BUOY 1900 78 N/A 2/ 7 2/ 7 64NM E OF VA BCH 1900 78 79 330/ 12/ 12 1013.0F 2/ 7 2/ 7 DUCK PIER NC 1900 84 80 10/ 3/ 5 1013.0F 44056 DUCK FRF 1900 N/A 1/ 7 OREGON INLET NC 1900 85 84 310/ 7/ 10 1013.7F HATTERAS NC 1900 85 83 270/ 12/ 14 1014.4F DIAMOND SHLS NC 1900 81 260/ 10/ 14 1013.8F 2/ 8 2/ 8 CAPE LOOKOUT NC 1800 85 240/ 9/ 11 1014.9F $$

USA.gov is the U.S. government's official web portal to all federal, state and local government web resources and services.